When you browse on this site, cookies collect data to enhance your experience and personalize the content and advertising you see.
Visit our Privacy Policy to learn more. By continuing to use the site, you agree to this use of cookies and data.
  • en Suisse
  • Liste des pays
  • À 7 jours
  • Température de l'eau
  • Carte météo
  • Widgets météo
  • user-avatar
    Se connecter

    Météo par heure à Minguetschaour

    Ce jour, 1 Juin, Lundi

    Heure Température Précipitation Vent Pression Humidité
    00:00 +21°C° 0 mm 3 m/s 751 mmHg 57%
    01:00 +20°C° 0 mm 3 m/s 751 mmHg 59%
    02:00 +20°C° 0 mm 3 m/s 751 mmHg 60%
    03:00 +19°C° 0 mm 2 m/s 751 mmHg 62%
    04:00 +20°C° 0 mm 2 m/s 751 mmHg 61%
    05:00 +20°C° 0 mm 2 m/s 751 mmHg 59%
    06:00 +21°C° 0 mm 2 m/s 751 mmHg 58%
    07:00 +22°C° 0 mm 3 m/s 751 mmHg 52%
    08:00 +25°C° 0 mm 3 m/s 750 mmHg 47%
    09:00 +27°C° 0 mm 3 m/s 750 mmHg 41%
    10:00 +28°C° 0 mm 3 m/s 750 mmHg 39%
    11:00 +30°C° 0 mm 3 m/s 749 mmHg 36%
    12:00 +31°C° 0 mm 3 m/s 749 mmHg 34%
    13:00 +32°C° 0 mm 2 m/s 749 mmHg 33%
    14:00 +32°C° 0 mm 2 m/s 748 mmHg 32%
    15:00 +34°C° 0 mm 2 m/s 747 mmHg 31%
    16:00 +34°C° 0 mm 2 m/s 747 mmHg 32%
    17:00 +32°C° 0 mm 1 m/s 747 mmHg 33%
    18:00 +32°C° 0 mm 1 m/s 747 mmHg 34%
    19:00 +30°C° 0 mm 1 m/s 747 mmHg 39%
    20:00 +28°C° 0 mm 2 m/s 747 mmHg 43%
    21:00 +27°C° 0 mm 2 m/s 748 mmHg 48%
    22:00 +25°C° 0 mm 2 m/s 747 mmHg 50%
    23:00 +24°C° 0 mm 2 m/s 747 mmHg 52%

    Demain, 2 Juin, Mardi

    Heure Température Précipitation Vent Pression Humidité
    00:00 +23°C° 0 mm 2 m/s 747 mmHg 55%
    01:00 +21°C° 0 mm 2 m/s 747 mmHg 57%
    02:00 +22°C° 0 mm 1 m/s 747 mmHg 58%
    03:00 +21°C° 0 mm 1 m/s 747 mmHg 60%
    04:00 +22°C° 0 mm 1 m/s 747 mmHg 58%
    05:00 +21°C° 0 mm 0 m/s 747 mmHg 56%
    06:00 +21°C° 0 mm 0 m/s 747 mmHg 54%
    07:00 +25°C° 0 mm 1 m/s 747 mmHg 49%
    08:00 +27°C° 0 mm 1 m/s 746 mmHg 45%
    09:00 +29°C° 0 mm 1 m/s 746 mmHg 41%
    10:00 +31°C° 0 mm 1 m/s 746 mmHg 38%
    11:00 +33°C° 0 mm 1 m/s 746 mmHg 34%
    12:00 +34°C° 0 mm 1 m/s 745 mmHg 31%
    13:00 +36°C° 0 mm 2 m/s 745 mmHg 29%
    14:00 +37°C° 0 mm 2 m/s 745 mmHg 27%
    15:00 +38°C° 0 mm 2 m/s 744 mmHg 25%
    16:00 +34°C° 0.3 mm 4 m/s 744 mmHg 37%
    17:00 +30°C° 0.3 mm 6 m/s 745 mmHg 48%
    18:00 +26°C° 0.3 mm 8 m/s 745 mmHg 59%
    19:00 +26°C° 0.2 mm 6 m/s 745 mmHg 60%
    20:00 +25°C° 0.2 mm 4 m/s 745 mmHg 61%
    21:00 +25°C° 0.2 mm 2 m/s 745 mmHg 62%
    22:00 +25°C° 0 mm 2 m/s 745 mmHg 62%
    23:00 +24°C° 0 mm 2 m/s 745 mmHg 62%

    Après-demain, 3 Juin, Mercredi

    Heure Température Précipitation Vent Pression Humidité
    00:00 +24°C° 0 mm 2 m/s 745 mmHg 61%
    01:00 +24°C° 0 mm 3 m/s 744 mmHg 63%
    02:00 +22°C° 0 mm 3 m/s 744 mmHg 65%
    03:00 +22°C° 0 mm 4 m/s 744 mmHg 66%
    04:00 +23°C° 0 mm 4 m/s 744 mmHg 63%
    05:00 +23°C° 0 mm 5 m/s 745 mmHg 60%
    06:00 +25°C° 0 mm 5 m/s 745 mmHg 57%
    07:00 +27°C° 0 mm 5 m/s 744 mmHg 51%
    08:00 +29°C° 0 mm 5 m/s 744 mmHg 45%
    09:00 +32°C° 0 mm 4 m/s 744 mmHg 39%
    10:00 +33°C° 0 mm 5 m/s 744 mmHg 35%
    11:00 +35°C° 0 mm 5 m/s 744 mmHg 31%
    12:00 +37°C° 0 mm 5 m/s 744 mmHg 27%
    13:00 +37°C° 0 mm 4 m/s 744 mmHg 25%
    14:00 +38°C° 0 mm 4 m/s 743 mmHg 23%
    15:00 +40°C° 0 mm 4 m/s 743 mmHg 21%
    16:00 +37°C° 0 mm 4 m/s 743 mmHg 25%
    17:00 +36°C° 0 mm 3 m/s 744 mmHg 29%
    18:00 +34°C° 0 mm 3 m/s 744 mmHg 33%
    19:00 +33°C° 0 mm 3 m/s 745 mmHg 35%
    20:00 +30°C° 0 mm 2 m/s 745 mmHg 38%
    21:00 +28°C° 0 mm 2 m/s 746 mmHg 40%
    22:00 +27°C° 0 mm 3 m/s 746 mmHg 45%
    23:00 +26°C° 0 mm 4 m/s 746 mmHg 49%

    4 Juin, Jeudi

    Heure Température Précipitation Vent Pression Humidité
    00:00 +25°C° 0 mm 5 m/s 747 mmHg 53%
    01:00 +23°C° 0 mm 6 m/s 747 mmHg 55%
    02:00 +23°C° 0 mm 6 m/s 747 mmHg 56%
    03:00 +22°C° 0 mm 6 m/s 748 mmHg 58%
    04:00 +23°C° 0 mm 6 m/s 748 mmHg 56%
    05:00 +23°C° 0 mm 5 m/s 748 mmHg 54%
    06:00 +25°C° 0 mm 5 m/s 749 mmHg 52%
    07:00 +26°C° 0 mm 5 m/s 749 mmHg 48%
    08:00 +28°C° 0 mm 4 m/s 749 mmHg 43%
    09:00 +30°C° 0 mm 4 m/s 749 mmHg 38%
    10:00 +31°C° 0 mm 3 m/s 749 mmHg 35%
    11:00 +32°C° 0 mm 2 m/s 748 mmHg 32%
    12:00 +34°C° 0 mm 1 m/s 748 mmHg 29%
    13:00 +35°C° 0 mm 2 m/s 748 mmHg 28%
    14:00 +36°C° 0 mm 3 m/s 748 mmHg 27%
    15:00 +37°C° 0 mm 4 m/s 748 mmHg 26%
    16:00 +35°C° 0 mm 5 m/s 748 mmHg 33%
    17:00 +34°C° 0 mm 7 m/s 748 mmHg 39%
    18:00 +32°C° 0 mm 8 m/s 748 mmHg 46%
    19:00 +29°C° 0 mm 7 m/s 749 mmHg 51%
    20:00 +27°C° 0 mm 7 m/s 749 mmHg 57%
    21:00 +26°C° 0 mm 6 m/s 749 mmHg 62%
    22:00 +25°C° 0 mm 5 m/s 750 mmHg 65%
    23:00 +23°C° 0 mm 4 m/s 750 mmHg 69%

    5 Juin, Vendredi

    Heure Température Précipitation Vent Pression Humidité
    00:00 +22°C° 0 mm 3 m/s 750 mmHg 72%
    01:00 +23°C° 0 mm 2 m/s 750 mmHg 72%
    02:00 +23°C° 0 mm 2 m/s 750 mmHg 73%
    03:00 +21°C° 0 mm 2 m/s 750 mmHg 73%
    04:00 +22°C° 0 mm 4 m/s 751 mmHg 70%
    05:00 +22°C° 0 mm 5 m/s 751 mmHg 67%
    06:00 +23°C° 0 mm 7 m/s 751 mmHg 64%
    07:00 +26°C° 0 mm 7 m/s 751 mmHg 57%
    08:00 +27°C° 0 mm 7 m/s 751 mmHg 50%
    09:00 +29°C° 0 mm 7 m/s 751 mmHg 43%
    10:00 +32°C° 0 mm 7 m/s 751 mmHg 37%
    11:00 +34°C° 0 mm 6 m/s 751 mmHg 32%
    12:00 +35°C° 0 mm 6 m/s 751 mmHg 27%
    13:00 +36°C° 0 mm 6 m/s 751 mmHg 25%
    14:00 +36°C° 0 mm 6 m/s 751 mmHg 24%
    15:00 +37°C° 0 mm 5 m/s 751 mmHg 23%
    16:00 +36°C° 0.1 mm 5 m/s 751 mmHg 24%
    17:00 +35°C° 0.1 mm 4 m/s 751 mmHg 26%
    18:00 +35°C° 0.1 mm 3 m/s 751 mmHg 28%
    19:00 +32°C° 0 mm 4 m/s 752 mmHg 36%
    20:00 +28°C° 0 mm 5 m/s 753 mmHg 45%
    21:00 +24°C° 0 mm 6 m/s 754 mmHg 53%
    22:00 +23°C° 0 mm 5 m/s 754 mmHg 56%
    23:00 +22°C° 0 mm 4 m/s 754 mmHg 59%

    6 Juin, Samedi

    Heure Température Précipitation Vent Pression Humidité
    00:00 +22°C° 0 mm 3 m/s 754 mmHg 61%
    01:00 +21°C° 0 mm 2 m/s 754 mmHg 63%
    02:00 +21°C° 0 mm 2 m/s 754 mmHg 65%
    03:00 +21°C° 0 mm 2 m/s 754 mmHg 67%
    04:00 +21°C° 0 mm 2 m/s 755 mmHg 65%
    05:00 +23°C° 0 mm 2 m/s 755 mmHg 63%
    06:00 +23°C° 0 mm 2 m/s 755 mmHg 61%
    07:00 +25°C° 0 mm 3 m/s 755 mmHg 56%
    08:00 +27°C° 0 mm 4 m/s 755 mmHg 51%
    09:00 +28°C° 0 mm 4 m/s 754 mmHg 45%
    10:00 +30°C° 0 mm 4 m/s 754 mmHg 42%
    11:00 +32°C° 0 mm 4 m/s 754 mmHg 39%
    12:00 +33°C° 0 mm 4 m/s 754 mmHg 37%
    13:00 +33°C° 0 mm 4 m/s 753 mmHg 35%
    14:00 +34°C° 0 mm 4 m/s 753 mmHg 34%
    15:00 +34°C° 0 mm 3 m/s 753 mmHg 33%
    16:00 +34°C° 0 mm 3 m/s 753 mmHg 34%
    17:00 +33°C° 0 mm 3 m/s 753 mmHg 35%
    18:00 +33°C° 0 mm 3 m/s 753 mmHg 36%
    19:00 +30°C° 0 mm 3 m/s 753 mmHg 40%
    20:00 +28°C° 0 mm 3 m/s 754 mmHg 45%
    21:00 +26°C° 0 mm 4 m/s 754 mmHg 49%
    22:00 +25°C° 0 mm 3 m/s 754 mmHg 52%
    23:00 +24°C° 0 mm 3 m/s 754 mmHg 55%
    Voir plus